Regional Weather Roundup
Issued by NWS

Home | Current Version | Previous Version | Graphics & Text | Print | Product List | Glossary On
Versions: 1 2 3 4 5 6 7 8 9 10 11 12 13 14 15 16 17 18 19 20 21 22 23 24 25 26 27
000
ASUS45 KBOU 222207
RWRCO

WEATHER ROUNDUP FOR COLORADO
NATIONAL WEATHER SERVICE DENVER/BOULDER CO
400 PM MDT TUE AUG 22 2017

NOTE: "FAIR" INDICATES FEW OR NO CLOUDS BELOW 12000 FEET WITH NO
SIGNIFICANT WEATHER AND/OR OBSTRUCTIONS TO VISIBILITY.

COZ001>005-013-030-031-222300-
...NORTHWEST COLORADO...

CITY           SKY/WX    TMP DP  RH WIND       PRES   REMARKS
CRAIG          PTSUNNY   78  35  21 S23G36    30.27S
HAYDEN         FAIR      79  38  22 SW24G30   30.30F
MEEKER         FAIR      71  45  39 SE12      30.35R
RABBIT EARS PA MOCLDY    63  34  34 W6G18     30.62S
STEAMBOAT SPGS FAIR      80  34  19 SW7       30.31S
WALDEN         FAIR      75  28  17 NW15      30.41F
$$

COZ006>008-011-222300-
...WEST CENTRAL VALLEYS...

CITY           SKY/WX    TMP DP  RH WIND       PRES   REMARKS
GRAND JUNCTION FAIR      90  43  19 NW8G18    30.16F
MONTROSE       FAIR      73  52  47 S12       30.31F
EAGLE          PTSUNNY   79  34  19 W9G18     30.32F
RIFLE          FAIR      86  37  17 NW14G25   30.23F
DELTA          FAIR      80  46  29 S18G25    30.25R
NUCLA          FAIR      86  37  17 NW3       30.29F
$$

COZ017>023-064>068-222300-
...SOUTHWEST COLORADO...

CITY           SKY/WX    TMP DP  RH WIND       PRES   REMARKS
DURANGO        PTSUNNY   80  42  25 W9        30.31F
CORTEZ         FAIR      85  46  25 SW10      30.25F
PAGOSA SPRINGS FAIR      73  38  28 NE5       30.41F
TELLURIDE      NOT AVBL
WOLF CREEK PAS FAIR      50  41  71 CALM      30.77F
$$

COZ009-010-012-014-032>034-037-058>063-222300-
...CENTRAL COLORADO...

CITY           SKY/WX    TMP DP  RH WIND       PRES   REMARKS
ASPEN          FAIR      78  36  21 NW10      30.39F
BUENA VISTA    FAIR      74  28  17 S15G24    30.41F
COPPER MTN     CLOUDY    59  30  33 NW6       30.73F
BERTHOUD PASS  PTSUNNY   50  45  81 S8        30.77S
COTTONWOOD PAS FAIR      68  27  21 SE15G22   30.56F
GUNNISON       FAIR      68  46  45 SW13      30.41R
KREMMLING      FAIR      88  27  11 NW9       30.35F
LEADVILLE      PTSUNNY   66  26  22 S8        30.53F
MONARCH PASS   CLOUDY    54  32  43 NE14      30.82F
SALIDA         FAIR      76  40  26 SE16G26   30.46F
SUNLIGHT       PTSUNNY   59  32  36 CALM      30.67F
WILKERSON PASS FAIR      64  34  32 SW9       30.69F
$$

COZ069>075-222300-
...SAN LUIS VALLEY/SANGRE DE CRISTO MOUNTAINS...

CITY           SKY/WX    TMP DP  RH WIND       PRES   REMARKS
ALAMOSA        FAIR      76  41  28 VRB7      30.40F
DEL NORTE      CLOUDY    67  48  50 W12       30.46S
LA VETA PASS   NOT AVBL
SAGUACHE         N/A    N/A N/A N/A MISG        N/A
$$

COZ035-036-038>040-222300-
...NORTHERN COLORADO FRONT RANGE...

CITY           SKY/WX    TMP DP  RH WIND       PRES   REMARKS
DENVER INTL AP PTSUNNY   84  51  31 SW10      30.23R
DMNS CITY PARK   N/A     82  54  38 NW8       30.23S
AURORA         PTSUNNY   83  55  37 S20       30.25F
FRONT RANGE AP FAIR      84  52  32 SE9G18    30.24F
ERIE MUNI ARPT FAIR      80  53  38 N3        30.27F
BOULDER MUN AP FAIR      81  54  39 CALM      30.24F
CENTENNIAL     PTSUNNY   80  53  39 S13       30.27F
BROOMFIELD     PTSUNNY   77  55  47 NW10      30.27F
FORT COLLINS   FAIR      76  60  57 NW7       30.24F
LONGMONT       FAIR      80  58  47 N5        30.24F
$$

COZ041-046-047-076>085-087-088-222300-
...PIKES PEAK/PALMER DIVIDE AND SOUTHERN FOOTHILLS...

CITY           SKY/WX    TMP DP  RH WIND       PRES   REMARKS
COLO. SPRINGS  PTSUNNY   71  57  61 S16       30.37F
A. F. ACADEMY  FAIR      72  57  59 SE16      30.36F
SCHRIEVER AFB  FAIR      69  56  63 S13       30.37F
CHEYENNE MTN   PTSUNNY   65  56  73 S15       30.34F
ELLICOTT       FAIR     N/A N/A N/A S13G20    30.36F
FALCON         FAIR      71  55  57 S17G25    30.42S
FORT CARSON    FAIR      72  56  58 S10       30.34F
LIMON          FAIR      76  56  49 S20G26    30.31F
MONUMENT HILL  FAIR      72  54  53 S23G30    30.40S
CANON CITY     SUNNY     79  61  53 NE10      30.31S
WALSENBURG     FAIR      77  57  50 E7        30.35F
TRINIDAD       PTSUNNY   73  56  54 SE10      30.36S
$$

COZ042>045-048>051-090-091-222300-
...NORTHEAST COLORADO...

CITY           SKY/WX    TMP DP  RH WIND       PRES   REMARKS
GREELEY ARPT   FAIR      83  58  42 E6        30.21F
AKRON          FAIR      79  51  37 S17G28    30.25F
BURLINGTON     FAIR      78  54  43 SE14G20   30.27F
WRAY           NOT AVBL
YUMA           FAIR      77  46  33 S13G18    30.24F
STERLING       FAIR      82  54  36 S15       30.20F
HOLYOKE        FAIR      81  50  34 S9G18     30.24F
FORT MORGAN    FAIR      86  51  29 SE14G24   30.22F
$$

COZ086-089-092>099-222300-
...SOUTHEAST COLORADO...

CITY           SKY/WX    TMP DP  RH WIND       PRES   REMARKS
PUEBLO         FAIR      81  54  39 SE13      30.26F
LA JUNTA       FAIR      79  58  48 VRB7      30.26F
LAMAR          FAIR      81  58  45 SE10G16   30.23F
SPRINGFIELD      N/A     78  61  55 E13       30.27F
$$




USA.gov is the U.S. government's official web portal to all federal, state and local government web resources and services.